Spokane Fairchild, WA
on Monday, February 11, 2013

Monday
Previous Day Next Day
Daily Summary
 ActualAverage (KGEG)Record (KGEG)
Temperature
Mean Temperature °F 32°F  
Max Temperature 37°F 39°F 53°F (1992)
Min Temperature 20°F 26°F -14°F (1884)
Degree Days
Heating Degree Days 36 33  
Month to date heating degree days 365  
Since 1 July heating degree days 4298  
Cooling Degree Days 0 0  
Month to date cooling degree days 0  
Year to date cooling degree days 0  
Moisture
Dew Point 27°F   
Average Humidity 94    
Maximum Humidity 100    
Minimum Humidity 73    
Precipitation
Precipitation 0.00 in 0.05 in 0.60 in (1897)
Month to date precipitation 0.52  
Year to date precipitation 2.31  
Snow
Snow 0.00 in 0.30 in 5.50 in (1897)
Month to date snowfall 3.0  
Since 1 July snowfall 36.5  
Snow Depth in   
Wind
Wind Speed 3 mph   
Max Wind Speed 9 mph   
Max Gust Speed mph   
Visibility 8 miles   
Events Snow   

Key: T is trace of precipitation, MM is missing value
Source: NWS Daily Summary
Time(PST)TemperatureDew PointHumidity Pressure Visibility Wind DirectionWind SpeedGust SpeedPrecipitationEvents Conditions
12:38 AM 23.0°F 23.0°F 100% 30.16 in 10.0 miles NNE 1.2 mph - N/A   Clear
12:54 AM 23.0°F 23.0°F 100% 30.15 in 8.0 miles NE 3.5 mph - N/A   Clear
12:58 AM 23.2°F 22.8°F 99% 30.24 in 9.0 miles NE 3.5 mph - 0.00 in   Clear
1:58 AM 23.9°F 23.4°F 98% 30.25 in 10.0 miles NE 4.6 mph - N/A   Clear
2:58 AM 24.1°F 23.5°F 98% 30.26 in 10.0 miles NNE 4.6 mph - N/A   Clear
3:55 AM 23.0°F 21.2°F 93% 30.16 in 10.0 miles NE 1.2 mph - N/A   Mostly Cloudy
3:58 AM 23.0°F 21.2°F 93% 30.25 in 10.0 miles NE 1.2 mph - N/A   Mostly Cloudy
4:05 AM 24.8°F 24.8°F 100% 30.16 in 10.0 miles Calm Calm - N/A   Mostly Cloudy
4:55 AM 21.2°F 19.4°F 93% 30.14 in 10.0 miles East 4.6 mph - N/A   Scattered Clouds
4:58 AM 20.5°F 19.4°F 96% 30.24 in 10.0 miles East 4.6 mph - 0.00 in   Scattered Clouds
5:02 AM 21.2°F 21.2°F 100% 30.15 in 10.0 miles East 3.5 mph - N/A   Partly Cloudy
5:07 AM 23.0°F 23.0°F 100% 30.15 in 8.0 miles ENE 4.6 mph - N/A Snow Light Snow
5:11 AM 23.0°F 23.0°F 100% 30.15 in 7.0 miles ENE 4.6 mph - N/A   Clear
5:16 AM 23.0°F 23.0°F 100% 30.14 in 4.0 miles East 4.6 mph - N/A Snow Light Snow
5:21 AM 23.0°F 23.0°F 100% 30.14 in 1.8 miles East 3.5 mph - N/A Snow Light Snow
5:26 AM 23.0°F 23.0°F 100% 30.14 in 1.2 miles ENE 2.3 mph - N/A Snow Light Snow
5:30 AM 23.0°F 23.0°F 100% 30.15 in 2.0 miles East 3.5 mph - N/A   Clear
5:35 AM 23.0°F 23.0°F 100% 30.14 in 5.0 miles ENE 3.5 mph - N/A   Clear
5:40 AM 23.0°F 23.0°F 100% 30.14 in 2.0 miles ENE 3.5 mph - N/A   Clear
5:43 AM 23.0°F 23.0°F 100% 30.14 in 1.5 miles ENE 3.5 mph - N/A Snow Light Snow
5:48 AM 23.0°F 23.0°F 100% 30.14 in 1.2 miles ENE 3.5 mph - N/A Snow Light Snow
5:53 AM 23.0°F 23.0°F 100% 30.14 in 1.0 miles East 4.6 mph - N/A Snow Light Snow
5:58 AM 23.2°F 22.5°F 97% 30.24 in 1.0 miles ENE 3.5 mph - 0.00 in Snow Light Snow
6:03 AM 23.0°F 23.0°F 100% 30.15 in 1.8 miles ENE 3.5 mph - N/A Snow Light Snow
6:04 AM 23.0°F 23.0°F 100% 30.14 in 2.0 miles ENE 3.5 mph - N/A   Clear
6:09 AM 23.0°F 23.0°F 100% 30.15 in 3.0 miles NE 3.5 mph - N/A   Clear
6:32 AM 23.0°F 23.0°F 100% 30.14 in 10.0 miles ENE 3.5 mph - N/A   Clear
6:41 AM 23.0°F 23.0°F 100% 30.14 in 10.0 miles ENE 2.3 mph - N/A   Clear
6:58 AM 23.0°F 22.3°F 97% 30.24 in 10.0 miles ENE 4.6 mph - 0.00 in   Clear
7:27 AM 23.0°F 23.0°F 100% 30.16 in 7.0 miles NNE 3.5 mph - N/A   Scattered Clouds
7:32 AM 23.0°F 21.2°F 93% 30.16 in 7.0 miles NNE 3.5 mph - N/A   Mostly Cloudy
7:36 AM 23.0°F 23.0°F 100% 30.16 in 9.0 miles NNE 3.5 mph - N/A   Mostly Cloudy
7:58 AM 24.6°F 24.1°F 98% 30.25 in 10.0 miles Calm Calm - 0.00 in   Mostly Cloudy
8:03 AM 23.0°F 21.2°F 93% 30.15 in 10.0 miles Calm Calm - N/A   Scattered Clouds
8:35 AM 28.4°F 28.4°F 100% 30.16 in 10.0 miles NE 4.6 mph - N/A   Partly Cloudy
8:40 AM 28.4°F 28.4°F 100% 30.16 in 10.0 miles NE 4.6 mph - N/A   Partly Cloudy
8:42 AM 28.4°F 28.4°F 100% 30.16 in 10.0 miles NE 4.6 mph - N/A   Partly Cloudy
8:58 AM 28.8°F 28.6°F 99% 30.25 in 10.0 miles ENE 4.6 mph - 0.00 in   Clear
9:54 AM 32.0°F 32.0°F 100% 30.17 in 10.0 miles ESE 6.9 mph - N/A   Clear
9:58 AM 31.5°F 30.7°F 97% 30.25 in 10.0 miles ESE 6.9 mph - 0.00 in   Clear
10:58 AM 34.2°F 28.9°F 81% 30.25 in 10.0 miles SSE 6.9 mph - N/A   Clear
11:58 AM 36.3°F 29.1°F 75% 30.23 in 10.0 miles SSE 4.6 mph - N/A   Partly Cloudy
12:23 PM 35.6°F 28.4°F 75% 30.16 in 10.0 miles South 4.6 mph - N/A   Overcast
12:58 PM 37.6°F 29.5°F 73% 30.23 in 10.0 miles South 8.1 mph - N/A   Overcast
1:00 PM 37.4°F 30.2°F 75% 30.14 in 10.0 miles South 8.1 mph - N/A   Overcast
1:19 PM 37.4°F 30.2°F 75% 30.14 in 10.0 miles SSW 4.6 mph - N/A   Mostly Cloudy
1:28 PM 37.4°F 30.2°F 75% 30.14 in 10.0 miles South 9.2 mph - N/A   Mostly Cloudy
1:37 PM 37.4°F 30.2°F 75% 30.14 in 10.0 miles South 8.1 mph - N/A   Overcast
1:58 PM 37.0°F 30.4°F 77% 30.22 in 10.0 miles Variable 5.8 mph - 0.00 in   Overcast
2:58 PM 34.9°F 30.6°F 84% 30.23 in 10.0 miles West 5.8 mph - N/A   Overcast
3:58 PM 34.7°F 30.9°F 86% 30.23 in 10.0 miles West 3.5 mph - N/A   Overcast
4:27 PM 33.8°F 32.0°F 93% 30.16 in 10.0 miles West 2.3 mph - N/A   Overcast
4:41 PM 33.8°F 32.0°F 93% 30.15 in 10.0 miles SW 3.5 mph - N/A   Overcast
4:58 PM 34.0°F 30.6°F 87% 30.24 in 10.0 miles SW 4.6 mph - 0.00 in   Overcast
5:35 PM 32.0°F 30.2°F 93% 30.16 in 10.0 miles Calm Calm - N/A   Overcast
5:43 PM 32.0°F 30.2°F 93% 30.16 in 10.0 miles Calm Calm - N/A   Overcast
5:58 PM 32.9°F 29.8°F 88% 30.25 in 10.0 miles South 2.3 mph - 0.00 in   Overcast
6:58 PM 32.7°F 30.4°F 91% 30.25 in 10.0 miles SSE 3.5 mph - N/A   Overcast
7:03 PM 32.0°F 32.0°F 100% 30.16 in 10.0 miles SSE 4.6 mph - N/A   Overcast
7:12 PM 32.0°F 32.0°F 100% 30.16 in 10.0 miles South 2.3 mph - N/A   Overcast
7:58 PM 33.1°F 30.6°F 90% 30.25 in 10.0 miles South 3.5 mph - 0.00 in   Overcast
8:08 PM 32.0°F 32.0°F 100% 30.16 in 10.0 miles SSW 3.5 mph - N/A   Overcast
8:58 PM 32.9°F 30.6°F 91% 30.25 in 10.0 miles West 2.3 mph - N/A   Overcast
9:12 PM 32.0°F 32.0°F 100% 30.17 in 10.0 miles WNW 2.3 mph - N/A   Overcast
9:29 PM 32.0°F 32.0°F 100% 30.17 in 10.0 miles West 1.2 mph - N/A   Overcast
9:58 PM 32.0°F 32.0°F 100% 30.24 in 10.0 miles North 1.2 mph - 0.00 in   Overcast
10:58 PM 32.5°F 30.4°F 92% 30.24 in 10.0 miles Calm Calm - N/A   Overcast
11:58 PM 32.0°F 30.7°F 95% 30.24 in 10.0 miles SSE 2.3 mph - N/A   Overcast
Moon Phase
Feb. 11 Feb. 17 Feb. 25 Mar. 04 Mar. 11
Sunrise:07:02 AM (PST) Moon Rise:07:18 AM (PST)2/11
Sunset:05:08 PM (PST) Moon Set:07:23 PM (PST)2/11

Copyright © 2014 The Weather Underground, Inc.